Погода в Атиге

Россия / Свердловская область     56°41′10″N   59°25′17″E
темп.,
°C
ветер,
м/с
пор.,
м/с
влажн.,
%
обл.,
%
осадки,
мм/ч
давл.,
гПа
погр.,
м
16 апреля, пт
пт1623:00+10зюз312810 0.0 1019316
02:00+7з289168 0.0 1020152
05:00+6ссз2398100 0.0 102171
08:00+4всв4989100 0.0 1024488
11:00+3всв4889100 0.1 1026518
14:00+4вюв366986 0.0 1027498
17:00+9всв34425 0.0 10261384
20:00+4в11650 0.0 102711
17 апреля, сб
сб1723:00+1в11772 0.0 102810
02:000вюв11835 0.0 102810
05:00−1юв11831 0.0 102810
08:00+3ссз00640 0.0 1027131
11:00+7ссз22470 0.0 10261131
14:00+9сз34360 0.0 10241476
17:00+9сз45415 0.0 10231607
20:00+4зсз37645 0.0 1023152
18 апреля, вс
вс1823:00+2з29785 0.0 1023204
02:00+1зсз312825 0.0 1021431
05:00+1зсз412875 0.0 1021485
08:00+2ссз5108099 0.0 10221042
11:00+1св5668100 0.4 10261205
14:00+3св5639100 0.0 10282131
17:00+2св5534100 0.0 10302079
20:00−1св48455 0.0 1032321
19 апреля, пн
пн1923:00−3св410520 0.0 1034551
02:00−4всв37500 0.0 1036411
05:00−6всв26550 0.0 1038229
08:00−4всв35365 0.0 1039875
11:00−1всв45260 0.0 10391397
14:00+2всв34250 0.0 10381704
17:00+2всв33270 0.0 10371704
20:00−2в21450 0.0 103810
20 апреля, вт
вт2023:00−4ююв11510 0.0 103910
02:00−5юз22565 0.0 103938
05:00−5зюз22555 0.0 103935
08:00−1з35395 0.0 1039340
11:00+4зсз352925 0.0 10371078
14:00+7зсз45275 0.0 10341332
17:00+7зсз45315 0.0 10331265
20:00+2зсз26540 0.0 103399